Location: Ústí nad Labem
(50.6611°N, 14.0531°E)
Time: 19:35:08
(UTC+02:00)

S-56A Canister/Altair - Pass Details

Date: 02 May 2025
Orbit: 633 x 2485 km, 38.9° (Epoch: 12 May)

Event Time Altitude Azimuth Distance (km) Brightness Sun altitude
Rises 22:07:37 0° 247° (WSW) 3,129 10.9 -13.6°
Reaches altitude 10° 22:10:02 10° 235° (SW) 2,347 10.1 -13.9°
Maximum altitude 22:14:39 28° 177° (S) 1,702 8.9 -14.4°
Enters shadow 22:17:41 20° 139° (SE) 2,249 9.2 -14.7°
